| time (UTC) | temp C | wind direction | speed KPH | gust KPH | rain 1hr cm | rain 24hr cm | rain mn cm | humidity % | barometer mb |
| 20260505015044 | 17 | 201 | 4.8 | 22.5 | 0.00 | 0.00 | 0.00 | 47 | 1007.8 |
| 20260505014553 | 17 | 199 | 4.8 | 22.5 | 0.00 | 0.00 | 0.00 | 46 | 1007.8 |
| 20260505014045 | 17 | 294 | 4.8 | 16.1 | 0.00 | 0.00 | 0.00 | 47 | 1007.8 |
| 20260505013543 | 17 | 219 | 4.8 | 20.9 | 0.00 | 0.00 | 0.00 | 45 | 1007.7 |
| 20260505013054 | 17 | 219 | 4.8 | 20.9 | 0.00 | 0.00 | 0.00 | 45 | 1007.5 |
| 20260505012543 | 17 | 209 | 4.8 | 14.5 | 0.00 | 0.00 | 0.00 | 45 | 1007.5 |
| 20260505012048 | 17 | 0 | 4.8 | 17.7 | 0.00 | 0.00 | 0.00 | 45 | 1007.4 |
| 20260505011553 | 17 | 208 | 3.2 | 17.7 | 0.00 | 0.00 | 0.00 | 43 | 1007.2 |
| 20260505011048 | 17 | 0 | 0.0 | 0.0 | 0.00 | 0.00 | 0.00 | 43 | 1007.1 |
| 20260505010544 | 17 | 0 | 0.0 | 0.0 | 0.00 | 0.00 | 0.00 | 41 | 1006.8 |
| 20260505010101 | 17 | 0 | 0.0 | 0.0 | 0.00 | 0.00 | 0.00 | 42 | 1006.8 |
| 20260505005544 | 17 | 0 | 0.0 | 4.8 | 0.00 | 0.00 | 0.00 | 43 | 1006.6 |
| 20260505005043 | 16 | 0 | 0.0 | 4.8 | 0.00 | 0.00 | 0.00 | 44 | 1006.6 |
| 20260505004550 | 16 | 166 | 0.0 | 0.0 | 0.00 | 0.00 | 0.00 | 44 | 1006.5 |
| 20260505004044 | 16 | 0 | 0.0 | 0.0 | 0.00 | 0.00 | 0.00 | 43 | 1006.4 |
| 20260505003543 | 17 | 0 | 0.0 | 0.0 | 0.00 | 0.00 | 0.00 | 42 | 1006.3 |
| 20260505003059 | 17 | 0 | 0.0 | 0.0 | 0.00 | 0.00 | 0.00 | 41 | 1006.1 |
| 20260505002544 | 17 | 0 | 0.0 | 0.0 | 0.00 | 0.00 | 0.00 | 40 | 1006.2 |
| 20260505002044 | 17 | 0 | 0.0 | 0.0 | 0.00 | 0.00 | 0.00 | 40 | 1006.0 |
| 20260505001551 | 18 | 0 | 0.0 | 0.0 | 0.00 | 0.00 | 0.00 | 38 | 1005.9 |
| 20260505001042 | 18 | 0 | 0.0 | 1.6 | 0.00 | 0.00 | 0.00 | 38 | 1005.9 |
| 20260505000541 | 18 | 0 | 0.0 | 4.8 | 0.00 | 0.00 | 0.00 | 38 | 1005.8 |
| 20260504235542 | 18 | 166 | 0.0 | 4.8 | 0.00 | 0.00 | 0.00 | 36 | 1005.8 |
| 20260504235042 | 19 | 0 | 0.0 | 6.4 | 0.00 | 0.00 | 0.00 | 36 | 1005.7 |
| 20260504234548 | 19 | 0 | 0.0 | 8.0 | 0.00 | 0.00 | 0.00 | 36 | 1005.6 |
| 20260504234041 | 19 | 165 | 1.6 | 8.0 | 0.00 | 0.00 | 0.00 | 36 | 1005.6 |
| 20260504233543 | 20 | 220 | 0.0 | 3.2 | 0.00 | 0.00 | 0.00 | 34 | 1005.5 |
| 20260504233053 | 20 | 0 | 0.0 | 6.4 | 0.00 | 0.00 | 0.00 | 34 | 1005.5 |
| 20260504232542 | 20 | 0 | 0.0 | 9.7 | 0.00 | 0.00 | 0.00 | 34 | 1005.5 |
| 20260504232042 | 20 | 0 | 0.0 | 9.7 | 0.00 | 0.00 | 0.00 | 33 | 1005.4 |
| 20260504231549 | 21 | 220 | 3.2 | 8.0 | 0.00 | 0.00 | 0.00 | 32 | 1005.2 |
| 20260504231039 | 21 | 304 | 1.6 | 8.0 | 0.00 | 0.00 | 0.00 | 31 | 1005.1 |
| 20260504230541 | 21 | 298 | 1.6 | 8.0 | 0.00 | 0.00 | 0.00 | 33 | 1005.0 |
| 20260504230049 | 21 | 248 | 1.6 | 16.1 | 0.00 | 0.00 | 0.00 | 31 | 1004.9 |
| 20260504225538 | 21 | 0 | 3.2 | 16.1 | 0.00 | 0.00 | 0.00 | 32 | 1004.9 |
| 20260504225041 | 21 | 218 | 4.8 | 12.9 | 0.00 | 0.00 | 0.00 | 32 | 1004.7 |
| 20260504224543 | 21 | 229 | 3.2 | 12.9 | 0.00 | 0.00 | 0.00 | 31 | 1004.7 |
| 20260504224045 | 21 | 246 | 3.2 | 16.1 | 0.00 | 0.00 | 0.00 | 32 | 1004.7 |
| 20260504223542 | 21 | 211 | 3.2 | 16.1 | 0.00 | 0.00 | 0.00 | 33 | 1004.8 |
| 20260504223049 | 21 | 322 | 3.2 | 12.9 | 0.00 | 0.00 | 0.00 | 33 | 1004.6 |
| 20260504222542 | 21 | 0 | 3.2 | 16.1 | 0.00 | 0.00 | 0.00 | 31 | 1004.6 |
| 20260504222044 | 21 | 294 | 6.4 | 16.1 | 0.00 | 0.00 | 0.00 | 31 | 1004.6 |
| 20260504221554 | 22 | 223 | 3.2 | 16.1 | 0.00 | 0.00 | 0.00 | 31 | 1004.8 |
| 20260504221042 | 22 | 194 | 4.8 | 17.7 | 0.00 | 0.00 | 0.00 | 31 | 1004.6 |
| 20260504220542 | 22 | 284 | 6.4 | 17.7 | 0.00 | 0.00 | 0.00 | 29 | 1004.6 |
| 20260504220110 | 22 | 0 | 1.6 | 16.1 | 0.00 | 0.00 | 0.00 | 32 | 1004.6 |
| 20260504215542 | 22 | 268 | 3.2 | 17.7 | 0.00 | 0.00 | 0.00 | 30 | 1004.7 |
| 20260504215042 | 22 | 229 | 4.8 | 17.7 | 0.00 | 0.00 | 0.00 | 31 | 1004.6 |
| 20260504214553 | 22 | 240 | 9.7 | 17.7 | 0.00 | 0.00 | 0.00 | 29 | 1004.5 |
| 20260504214042 | 22 | 233 | 3.2 | 12.9 | 0.00 | 0.00 | 0.00 | 32 | 1004.5 |
| 20260504213541 | 22 | 219 | 3.2 | 14.5 | 0.00 | 0.00 | 0.00 | 30 | 1004.6 |
| 20260504213050 | 22 | 182 | 4.8 | 22.5 | 0.00 | 0.00 | 0.00 | 31 | 1004.5 |
| 20260504212543 | 22 | 206 | 4.8 | 22.5 | 0.00 | 0.00 | 0.00 | 30 | 1004.7 |
| 20260504212039 | 22 | 211 | 6.4 | 19.3 | 0.00 | 0.00 | 0.00 | 30 | 1004.7 |
| 20260504211545 | 22 | 250 | 6.4 | 19.3 | 0.00 | 0.00 | 0.00 | 30 | 1004.7 |
| 20260504211042 | 23 | 205 | 3.2 | 17.7 | 0.00 | 0.00 | 0.00 | 30 | 1004.7 |
| 20260504210542 | 22 | 298 | 4.8 | 17.7 | 0.00 | 0.00 | 0.00 | 30 | 1004.6 |
| 20260504210052 | 22 | 180 | 6.4 | 25.7 | 0.00 | 0.00 | 0.00 | 30 | 1004.5 |
| 20260504205544 | 22 | 242 | 6.4 | 25.7 | 0.00 | 0.00 | 0.00 | 29 | 1004.5 |
| 20260504205044 | 22 | 179 | 9.7 | 24.1 | 0.00 | 0.00 | 0.00 | 31 | 1004.5 |
| 20260504204600 | 23 | 220 | 8.0 | 17.7 | 0.00 | 0.00 | 0.00 | 30 | 1004.4 |
| 20260504204043 | 22 | 232 | 3.2 | 12.9 | 0.00 | 0.00 | 0.00 | 29 | 1004.5 |
| 20260504203544 | 22 | 322 | 3.2 | 16.1 | 0.00 | 0.00 | 0.00 | 31 | 1004.6 |
| 20260504203057 | 22 | 0 | 3.2 | 19.3 | 0.00 | 0.00 | 0.00 | 29 | 1004.8 |
| 20260504202544 | 22 | 236 | 4.8 | 19.3 | 0.00 | 0.00 | 0.00 | 31 | 1004.7 |
| 20260504202044 | 22 | 229 | 4.8 | 29.0 | 0.00 | 0.00 | 0.00 | 29 | 1004.6 |
| 20260504201555 | 22 | 242 | 9.7 | 29.0 | 0.00 | 0.00 | 0.00 | 29 | 1004.7 |
| 20260504201045 | 22 | 293 | 6.4 | 16.1 | 0.00 | 0.00 | 0.00 | 29 | 1004.6 |
| 20260504200544 | 23 | 221 | 6.4 | 17.7 | 0.00 | 0.00 | 0.00 | 30 | 1004.8 |
| 20260504200100 | 23 | 329 | 8.0 | 17.7 | 0.00 | 0.00 | 0.00 | 28 | 1004.7 |
| 20260504195542 | 22 | 284 | 4.8 | 19.3 | 0.00 | 0.00 | 0.00 | 31 | 1004.6 |
| 20260504195044 | 22 | 157 | 4.8 | 27.4 | 0.00 | 0.00 | 0.00 | 32 | 1004.8 |
| 20260504194555 | 22 | 259 | 4.8 | 27.4 | 0.00 | 0.00 | 0.00 | 31 | 1004.7 |
| 20260504194047 | 21 | 200 | 4.8 | 17.7 | 0.00 | 0.00 | 0.00 | 29 | 1004.7 |
| 20260504193544 | 22 | 295 | 6.4 | 17.7 | 0.00 | 0.00 | 0.00 | 28 | 1004.9 |
| 20260504193052 | 22 | 13 | 4.8 | 22.5 | 0.00 | 0.00 | 0.00 | 29 | 1004.9 |
| 20260504192543 | 22 | 273 | 8.0 | 22.5 | 0.00 | 0.00 | 0.00 | 29 | 1004.8 |
| 20260504192043 | 22 | 198 | 6.4 | 27.4 | 0.00 | 0.00 | 0.00 | 29 | 1004.8 |
| 20260504191555 | 21 | 16 | 6.4 | 27.4 | 0.00 | 0.00 | 0.00 | 31 | 1004.7 |
| 20260504191044 | 22 | 256 | 6.4 | 19.3 | 0.00 | 0.00 | 0.00 | 28 | 1005.0 |
| 20260504190544 | 21 | 236 | 8.0 | 24.1 | 0.00 | 0.00 | 0.00 | 33 | 1005.0 |
| 20260504185544 | 21 | 193 | 9.7 | 27.4 | 0.00 | 0.00 | 0.00 | 32 | 1004.9 |
| 20260504185044 | 21 | 211 | 6.4 | 35.4 | 0.00 | 0.00 | 0.00 | 30 | 1005.0 |
| 20260504184613 | 21 | 269 | 11.3 | 35.4 | 0.00 | 0.00 | 0.00 | 28 | 1005.0 |
| 20260504184045 | 21 | 221 | 12.9 | 22.5 | 0.00 | 0.00 | 0.00 | 30 | 1004.8 |
| 20260504183545 | 21 | 248 | 8.0 | 22.5 | 0.00 | 0.00 | 0.00 | 30 | 1004.8 |
| 20260504183056 | 22 | 169 | 8.0 | 30.6 | 0.00 | 0.00 | 0.00 | 30 | 1005.0 |
| 20260504182545 | 22 | 214 | 8.0 | 30.6 | 0.00 | 0.00 | 0.00 | 32 | 1004.8 |
| 20260504182044 | 22 | 59 | 8.0 | 29.0 | 0.00 | 0.00 | 0.00 | 28 | 1005.1 |
| 20260504181552 | 21 | 244 | 9.7 | 27.4 | 0.00 | 0.00 | 0.00 | 29 | 1004.9 |
| 20260504181044 | 22 | 167 | 11.3 | 24.1 | 0.00 | 0.00 | 0.00 | 30 | 1004.9 |
| 20260504180545 | 22 | 198 | 6.4 | 27.4 | 0.00 | 0.00 | 0.00 | 32 | 1005.0 |
| 20260504180052 | 21 | 215 | 9.7 | 27.4 | 0.00 | 0.00 | 0.00 | 31 | 1005.1 |
| 20260504175543 | 21 | 184 | 9.7 | 29.0 | 0.00 | 0.00 | 0.00 | 30 | 1005.0 |
| 20260504175042 | 21 | 195 | 8.0 | 29.0 | 0.00 | 0.00 | 0.00 | 31 | 1005.2 |
| 20260504174549 | 21 | 198 | 12.9 | 27.4 | 0.00 | 0.00 | 0.00 | 30 | 1005.1 |
| 20260504174043 | 21 | 312 | 12.9 | 27.4 | 0.00 | 0.00 | 0.00 | 30 | 1005.2 |
| 20260504173541 | 21 | 195 | 6.4 | 22.5 | 0.00 | 0.00 | 0.00 | 32 | 1005.1 |
| 20260504173102 | 21 | 226 | 9.7 | 29.0 | 0.00 | 0.00 | 0.00 | 36 | 1005.2 |
| 20260504172541 | 20 | 221 | 9.7 | 29.0 | 0.00 | 0.00 | 0.00 | 33 | 1005.3 |
| 20260504172043 | 21 | 213 | 9.7 | 27.4 | 0.00 | 0.00 | 0.00 | 37 | 1005.4 |
| 20260504171551 | 21 | 225 | 11.3 | 30.6 | 0.00 | 0.00 | 0.00 | 34 | 1005.2 |
| 20260504171042 | 20 | 240 | 9.7 | 43.5 | 0.00 | 0.00 | 0.00 | 32 | 1005.2 |
| 20260504170542 | 20 | 218 | 12.9 | 43.5 | 0.00 | 0.00 | 0.00 | 31 | 1005.2 |
| 20260504151041 | 18 | 209 | 12.9 | 22.5 | 0.00 | 0.00 | 0.00 | 36 | 1006.3 |
| 20260504150540 | 18 | 182 | 11.3 | 22.5 | 0.00 | 0.00 | 0.00 | 36 | 1006.5 |
| 20260504141042 | 16 | 230 | 3.2 | 17.7 | 0.00 | 0.00 | 0.00 | 44 | 1007.5 |
| 20260504140542 | 16 | 175 | 6.4 | 17.7 | 0.00 | 0.00 | 0.00 | 42 | 1007.6 |
| 20260504130543 | 13 | 207 | 1.6 | 9.7 | 0.00 | 0.00 | 0.00 | 52 | 1008.2 |
| 20260504110542 | 7 | 0 | 0.0 | 6.4 | 0.00 | 0.00 | 0.00 | 63 | 1009.2 |
| 20260504100542 | 6 | 182 | 0.0 | 4.8 | 0.00 | 0.00 | 0.00 | 65 | 1009.0 |
| 20260504081545 | 6 | 0 | 0.0 | 6.4 | 0.00 | 0.00 | 0.00 | 67 | 1008.8 |
| 20260504081043 | 5 | 199 | 3.2 | 6.4 | 0.00 | 0.00 | 0.00 | 70 | 1008.7 |
| 20260504080543 | 5 | 199 | 1.6 | 6.4 | 0.00 | 0.00 | 0.00 | 69 | 1008.8 |
| 20260504050543 | 3 | 0 | 0.0 | 0.0 | 0.00 | 0.03 | 0.00 | 70 | 1008.7 |
| 20260504045543 | 3 | 0 | 0.0 | 0.0 | 0.00 | 0.03 | 0.00 | 69 | 1008.8 |
| 20260504045041 | 3 | 0 | 0.0 | 0.0 | 0.00 | 0.03 | 0.00 | 69 | 1008.8 |
| 20260504044558 | 3 | 0 | 0.0 | 0.0 | 0.00 | 0.03 | 0.00 | 69 | 1008.7 |
| 20260504044043 | 3 | 0 | 0.0 | 3.2 | 0.00 | 0.03 | 0.00 | 69 | 1008.8 |
| 20260504043543 | 3 | 0 | 0.0 | 3.2 | 0.00 | 0.03 | 0.00 | 69 | 1008.8 |
| 20260504043047 | 3 | 0 | 0.0 | 0.0 | 0.00 | 0.03 | 0.00 | 68 | 1008.7 |
| 20260504042544 | 3 | 0 | 0.0 | 0.0 | 0.00 | 0.03 | 0.00 | 68 | 1008.6 |
| 20260504042045 | 4 | 0 | 0.0 | 0.0 | 0.00 | 0.03 | 0.00 | 68 | 1008.6 |
| 20260504041549 | 4 | 0 | 0.0 | 0.0 | 0.00 | 0.03 | 0.00 | 67 | 1008.5 |
| 20260504041044 | 4 | 0 | 0.0 | 0.0 | 0.00 | 0.03 | 0.00 | 66 | 1008.5 |
| 20260504040543 | 4 | 0 | 0.0 | 0.0 | 0.00 | 0.03 | 0.00 | 66 | 1008.4 |
| 20260504040100 | 4 | 0 | 0.0 | 1.6 | 0.00 | 0.03 | 0.00 | 66 | 1008.4 |
| 20260504035547 | 4 | 0 | 0.0 | 1.6 | 0.00 | 0.03 | 0.03 | 66 | 1008.4 |
| 20260504035044 | 4 | 0 | 0.0 | 1.6 | 0.00 | 0.03 | 0.03 | 66 | 1008.3 |
| 20260504034558 | 4 | 0 | 0.0 | 1.6 | 0.00 | 0.03 | 0.03 | 66 | 1008.3 |
| 20260504034046 | 4 | 0 | 0.0 | 3.2 | 0.00 | 0.03 | 0.03 | 67 | 1008.3 |
| 20260504033542 | 4 | 0 | 0.0 | 3.2 | 0.00 | 0.03 | 0.03 | 66 | 1008.3 |
| 20260504033114 | 5 | 0 | 0.0 | 4.8 | 0.00 | 0.03 | 0.03 | 66 | 1008.3 |
| 20260504032544 | 5 | 0 | 0.0 | 4.8 | 0.00 | 0.03 | 0.03 | 66 | 1008.2 |
| 20260504032043 | 5 | 284 | 0.0 | 3.2 | 0.00 | 0.03 | 0.03 | 65 | 1008.0 |
| 20260504031545 | 5 | 0 | 0.0 | 0.0 | 0.00 | 0.03 | 0.03 | 65 | 1008.1 |
| 20260504031043 | 5 | 0 | 0.0 | 0.0 | 0.00 | 0.03 | 0.03 | 63 | 1008.0 |
| 20260504030543 | 5 | 0 | 0.0 | 0.0 | 0.00 | 0.03 | 0.03 | 62 | 1008.0 |
| 20260504030051 | 5 | 0 | 0.0 | 6.4 | 0.00 | 0.03 | 0.03 | 62 | 1008.0 |
| 20260504025543 | 5 | 0 | 0.0 | 6.4 | 0.00 | 0.03 | 0.03 | 61 | 1008.0 |
| 20260504025043 | 5 | 0 | 0.0 | 0.0 | 0.00 | 0.03 | 0.03 | 62 | 1008.0 |
| 20260504024550 | 5 | 0 | 0.0 | 0.0 | 0.00 | 0.03 | 0.03 | 62 | 1008.1 |
| 20260504024044 | 5 | 0 | 0.0 | 0.0 | 0.00 | 0.03 | 0.03 | 61 | 1008.1 |
| 20260504023543 | 5 | 0 | 0.0 | 0.0 | 0.00 | 0.03 | 0.03 | 62 | 1008.1 |
| 20260504023100 | 5 | 0 | 0.0 | 0.0 | 0.00 | 0.03 | 0.03 | 62 | 1008.2 |
| 20260504022549 | 5 | 0 | 0.0 | 0.0 | 0.00 | 0.03 | 0.03 | 62 | 1008.1 |
| 20260504022041 | 5 | 0 | 0.0 | 0.0 | 0.00 | 0.03 | 0.03 | 63 | 1008.1 |
| 20260504021552 | 5 | 0 | 0.0 | 0.0 | 0.00 | 0.03 | 0.03 | 64 | 1008.1 |
| 20260504021043 | 5 | 0 | 0.0 | 0.0 | 0.00 | 0.03 | 0.03 | 64 | 1008.1 |
| 20260504020541 | 5 | 0 | 0.0 | 0.0 | 0.00 | 0.03 | 0.03 | 65 | 1008.1 |
| 20260504020057 | 5 | 0 | 0.0 | 3.2 | 0.00 | 0.03 | 0.03 | 65 | 1008.1 |
| 20260504015542 | 5 | 0 | 0.0 | 3.2 | 0.00 | 0.03 | 0.03 | 64 | 1008.1 |